NOAA 16 DEB, 42407

Orbit data source: Space-Track

NOAA 16 DEB, 42407 is space debris in SSO originally from a launch on Thu, 21 Sep 2000 UTC launched from the Air Force Western Test Range (AFWTR). Debris objects in space refer to the collection of defunct objects orbiting the Earth. Examples of debris include non-operational satellites, rocket bodies, and fragments generated from explosions, collisions, or faulty payload assembly.

Loading next visibility...
Identifier
42407, 2000-055TB
Orbit
SSO
Country
Flag of USUS
Related business
Manufacturer
Unknown
Mission
Spacecraft
Bus & Motor
Unknown
Mass
Unknown
Launch date (UTC)
2000-09-21 (25 years ago)
Launch vehicle
Unknown
Launch site
Air Force Western Test Range (AFWTR)
Object type
Payload
Rocket body
Debris
Shape & HBR
Unknown shape, 0.1 m
Radar Cross Section
Small (<0.1 m²)

Expand to show TLE details & history
Last TLE update: 7 hours ago

TLE from 7 hours ago
0 NOAA 16 DEB
1 42407U 00055TB  26037.49723207  .00077137  00000-0  88912-2 0  9994
2 42407  98.9675 229.0925 0009989 343.0475  17.0401 14.85248189511126
Epoch: 2026-02-06T11:56Z
TLE epoch observation values (Epoch: 2026-02-06T11:56:00.850Z)
Latitude
-0.00007°
Longitude
-86.54529°
Altitude
609.124 km
Speed
7.558 km/s
True Right ascension
15h 16m 22s
True Declination
0° 00' 00"
Sunlit
Object was in daylight at epoch
Visualization orbit readout
Latitude
Unknown
Longitude
Unknown
Altitude
Unknown
Speed
Unknown
Apparent Right ascension
Unknown
Apparent Declination
Unknown
Sunlit
N/A
Visualization observer readout
Local Sidereal Time
21:00:48
Azimuth
Unknown
Elevation
Unknown
Doppler factor
Unknown
Orbital elements
Apogee altitude
616.872 km
Perigee altitude
602.912 km
Semi-major axis
6,988.029 km
Eccentricity
0.001
Inclination
98.9675°
RAAN
229.0925°
Arg. of periapsis
343.0475°
True anomaly
17.07368°
Mean anomaly
17.0401°
Eccentric anomaly
17.05689°
Mean motion
3.71545 °/min
Orbital period
96.89 mins
BSTAR
0.0088912
Loading maneuver chart data...
Computing Atmospheric mass density...
Loading historical data...
Loading historical data...
Loading historical data...
Loading historical data...
Loading historical data...
Loading historical data...
Loading historical data...

Documentation

Showing up to 5 results
|